[[{"header":{"parameterUnit":"m.s-1","parameterCategory":1,"la1":30.2991,"la2":30.254,"lo1":-89.0895,"lo2":-89.0444,"dy":0.0017,"dx":0.0017,"nx":28,"ny":28,"refTime":"2024-05-01T03:00:00:Z","depth":0,"parameterNumber":2,"parameterNumberName":"U-component_of_WINDS"},"data":[0,0,0,0,0,0,0,0,0,0,0,0,0,0,0,0,0,0,0,0,0,0,0,0,0,0,0,0,0,0,0,0,0,0,0,0,0,0,0,0,0,0,0,0,0,0,0,0,0,0,0,0,0,0,0,0,0,0,-1.2794,-1.2794,0,-1.2776,-1.2776,-1.2776,-1.2744,-1.2743,-1.2742,-1.2742,-1.2723,-1.2723,-1.2724,0,0,0,0,0,0,0,0,0,0,0,0,0,-1.2802,-1.2802,-1.2795,-1.2794,-1.2794,-1.2776,-1.2776,-1.2776,-1.2744,-1.2743,-1.2742,-1.2742,-1.2723,-1.2723,-1.2724,0,0,0,0,0,0,0,0,0,0,0,0,0,-1.2793,-1.2802,-1.2795,-1.2776,-1.2774,-1.2776,-1.2776,-1.2776,-1.2744,-1.2743,-1.2742,-1.2741,-1.2723,-1.2723,-1.2724,-1.2743,0,0,-1.2724,-1.2724,0,0,0,0,0,0,0,0,-1.2793,-1.2793,-1.2779,-1.2777,-1.2775,-1.2761,-1.2772,-1.2765,-1.2744,-1.2755,-1.2742,-1.2741,-1.2737,-1.2736,-1.2734,-1.2742,-1.2741,-1.2724,-1.2724,-1.2724,-1.2724,0,0,0,0,0,0,0,-1.2794,-1.2793,-1.2787,-1.2779,-1.2776,-1.2769,-1.2766,-1.277,-1.2751,-1.2754,-1.2752,-1.275,-1.2736,-1.2734,-1.2734,-1.2741,-1.2724,-1.2724,-1.2724,-1.2724,-1.2764,-1.2764,0,0,0,0,0,0,-1.2797,-1.2794,-1.2788,-1.2787,-1.2782,-1.2769,-1.2767,-1.2767,-1.2751,-1.2748,-1.2751,-1.2749,-1.2735,-1.2734,-1.2733,-1.2755,-1.2724,-1.2724,-1.2724,-1.2763,-1.2764,-1.2765,0,0,0,0,0,0,-1.2798,-1.2797,-1.2789,-1.279,-1.2788,-1.277,-1.277,-1.2767,-1.2765,-1.2749,-1.2745,-1.2753,-1.2734,-1.2733,-1.2741,-1.2753,-1.2724,-1.2724,-1.2761,-1.2763,-1.2764,-1.2798,0,0,0,0,0,0,-1.2798,-1.2797,-1.2804,-1.279,-1.2788,-1.2797,-1.2771,-1.2767,-1.2766,-1.2763,-1.275,-1.2747,-1.2733,-1.2741,-1.2741,-1.2753,-1.2724,-1.276,-1.2762,-1.2764,-1.2796,-1.28,-1.2805,0,0,0,0,0,-1.2798,-1.2814,-1.2805,-1.2804,-1.2796,-1.2797,-1.2796,-1.278,-1.2767,-1.2774,-1.2763,-1.2747,-1.2752,-1.2742,-1.2742,-1.2754,-1.2759,-1.2762,-1.2764,-1.2794,-1.2799,-1.2804,0,0,0,0,0,0,-1.2831,-1.2812,-1.2801,-1.2813,-1.2807,-1.2792,-1.28,-1.2786,-1.2784,-1.2781,-1.2761,-1.2758,-1.2769,-1.2762,-1.2751,-1.2772,-1.2753,-1.2756,-1.2776,-1.2781,-1.2786,-1.2787,-1.2725,0,0,0,0,0,-1.2839,-1.2841,-1.2825,-1.2837,-1.2835,-1.2818,-1.2818,-1.2806,-1.2799,-1.2796,-1.2786,-1.278,-1.278,-1.278,-1.2779,-1.2795,-1.2792,-1.2803,-1.2808,-1.2811,-1.2814,-1.2822,-1.2827,-1.2772,-1.2772,-1.2772,0,0,-1.2857,-1.2847,-1.285,-1.2844,-1.2837,-1.284,-1.2816,-1.282,-1.2822,-1.2797,-1.2803,-1.2796,-1.2788,-1.28,-1.2804,-1.2794,-1.2828,-1.2814,-1.2817,-1.2817,-1.2824,-1.283,-1.2834,-1.2774,-1.2773,-1.2773,0,0,-1.289,-1.2883,-1.2893,-1.2887,-1.2878,-1.2867,-1.2869,-1.2856,-1.285,-1.2857,-1.2838,-1.284,-1.2841,-1.2836,-1.2833,-1.2866,-1.2851,-1.2866,-1.2889,-1.2897,-1.2902,-1.2905,-1.2917,-1.2922,-1.2868,-1.2868,-1.2868,0,-1.2914,-1.2917,-1.2899,-1.2905,-1.2903,-1.288,-1.2889,-1.2885,-1.2876,-1.2876,-1.2865,-1.2865,-1.2858,-1.2868,-1.2876,-1.2875,-1.2877,-1.2867,-1.2902,-1.2906,-1.2909,-1.292,-1.2925,-1.287,-1.287,-1.287,-1.287,0,-1.2946,-1.2949,-1.2958,-1.295,-1.2949,-1.2957,-1.294,-1.2942,-1.293,-1.292,-1.2927,-1.2918,-1.2915,-1.2916,-1.2905,-1.2926,-1.292,-1.2906,-1.2887,-1.2917,-1.2927,-1.2931,-1.2873,-1.2872,-1.2872,-1.2871,0,0,-1.3,-1.2982,-1.2986,-1.2982,-1.2971,-1.2973,-1.2979,-1.2976,-1.2978,-1.2973,-1.2978,-1.298,-1.2967,-1.2964,-1.2952,-1.2959,-1.2986,-1.2944,-1.2944,-1.2952,-1.3009,-1.3019,-1.3024,-1.2976,-1.2977,-1.2977,-1.3009,0,-1.3031,-1.3041,-1.3026,-1.304,-1.3042,-1.3021,-1.3027,-1.302,-1.3012,-1.3013,-1.3003,-1.3004,-1.2987,-1.2985,-1.2991,-1.2981,-1.2997,-1.2979,-1.2981,-1.2981,-1.2984,-1.303,-1.3041,-1.3072,-1.3013,-1.3014,-1.3014,0,-1.3069,-1.3066,-1.308,-1.3068,-1.3069,-1.3074,-1.3071,-1.3072,-1.3065,-1.3058,-1.3055,-1.3041,-1.3047,-1.3028,-1.3036,-1.3024,-1.3025,-1.302,-1.3021,-1.302,-1.3,-1.3031,-1.3081,-1.3086,-1.302,-1.302,-1.3019,0,-1.3107,-1.3106,-1.3115,-1.3112,-1.3099,-1.3103,-1.3098,-1.3089,-1.3089,-1.3086,-1.3085,-1.3083,-1.3082,-1.3081,-1.3066,-1.3054,-1.3076,-1.3056,-1.3071,-1.3072,-1.3077,-1.3077,-1.3128,-1.3077,-1.3077,-1.3077,-1.3076,0,-1.3144,-1.3154,-1.3132,-1.3137,-1.3147,-1.313,-1.314,-1.3133,-1.3126,-1.3129,-1.3111,-1.3114,-1.3095,-1.3097,-1.3085,-1.3094,-1.3094,-1.3089,-1.3086,-1.3091,-1.3091,-1.309,-1.3088,-1.3078,-1.3077,-1.3077,-1.3077,0,-1.3188,-1.3174,-1.3182,-1.3168,-1.3165,-1.3173,-1.3162,-1.3166,-1.3156,-1.3161,-1.3161,-1.3146,-1.3147,-1.3132,-1.3131,-1.3123,-1.3138,-1.3131,-1.314,-1.3138,-1.3154,-1.3153,-1.3206,-1.3213,-1.3157,-1.3158,-1.3158,0,-1.3213,-1.322,-1.3207,-1.3208,-1.3203,-1.3205,-1.3205,-1.3187,-1.3188,-1.318,-1.3186,-1.3186,-1.3185,-1.3188,-1.3176,-1.3175,-1.3168,-1.3187,-1.3168,-1.3173,-1.3169,-1.3169,-1.317,-1.3191,-1.3192,-1.3193,-1.3193,0,-1.3258,-1.3251,-1.3251,-1.3248,-1.3248,-1.3245,-1.3241,-1.3243,-1.3224,-1.3226,-1.3227,-1.3226,-1.3224,-1.3225,-1.3221,-1.3216,-1.3202,-1.3199,-1.3203,-1.3208,-1.3213,-1.3211,-1.3151,-1.3198,-1.3198,-1.3197,-1.3197,-1.3197,-1.3294,-1.3299,-1.3291,-1.3291,-1.3286,-1.3283,-1.3287,-1.3278,-1.3278,-1.3276,-1.3265,-1.3268,-1.3261,-1.3256,-1.3252,-1.3254,-1.3245,-1.325,-1.3251,-1.3252,-1.3256,-1.3213,-1.3253,-1.3253,-1.3253,-1.3253,-1.3253,0,-1.3338,-1.3332,-1.3333,-1.3328,-1.3328,-1.3315,-1.331,-1.3311,-1.3314,-1.3308,-1.3308,-1.3309,-1.331,-1.3298,-1.3297,-1.3301,-1.3295,-1.3302,-1.3301,-1.3301,-1.3264,-1.3261,-1.3307,-1.3307,-1.3307,-1.3307,-1.3307,-1.3307,-1.3362,-1.337,-1.3362,-1.3368,-1.3362,-1.3365,-1.3363,-1.336,-1.3356,-1.3358,-1.3358,-1.3351,-1.3343,-1.3342,-1.3341,-1.3338,-1.3339,-1.3348,-1.3343,-1.3308,-1.3303,-1.3298,-1.3295,-1.3348,-1.3348,-1.3379,-1.338,-1.338]},{"header":{"parameterUnit":"m.s-1","parameterCategory":1,"la1":30.2991,"la2":30.254,"lo1":-89.0895,"lo2":-89.0444,"dy":0.0017,"dx":0.0017,"nx":28,"ny":28,"refTime":"2024-05-01T03:00:00:Z","depth":0,"parameterNumber":3,"parameterNumberName":"V-component_of_WINDS"},"data":[0,0,0,0,0,0,0,0,0,0,0,0,0,0,0,0,0,0,0,0,0,0,0,0,0,0,0,0,0,0,0,0,0,0,0,0,0,0,0,0,0,0,0,0,0,0,0,0,0,0,0,0,0,0,0,0,0,0,2.063,2.063,0,2.0594,2.0594,2.0593,2.0547,2.0546,2.0545,2.0545,2.0505,2.0505,2.0505,0,0,0,0,0,0,0,0,0,0,0,0,0,2.0659,2.0658,2.063,2.063,2.0629,2.0594,2.0594,2.0593,2.0547,2.0546,2.0545,2.0544,2.0506,2.0505,2.0505,0,0,0,0,0,0,0,0,0,0,0,0,0,2.0637,2.0658,2.063,2.0602,2.0599,2.0594,2.0593,2.0593,2.0547,2.0546,2.0545,2.0544,2.0506,2.0505,2.0505,2.0524,0,0,2.0503,2.0503,0,0,0,0,0,0,0,0,2.0638,2.0636,2.0607,2.0604,2.0601,2.0574,2.0589,2.057,2.0547,2.0567,2.0545,2.0543,2.0529,2.0526,2.0522,2.0522,2.052,2.0503,2.0503,2.0503,2.0502,0,0,0,0,0,0,0,2.064,2.0637,2.0616,2.0606,2.0603,2.0591,2.0587,2.0585,2.0555,2.0565,2.0562,2.0558,2.0527,2.0523,2.0521,2.052,2.0503,2.0503,2.0502,2.0502,2.0533,2.0535,0,0,0,0,0,0,2.0646,2.0639,2.0617,2.0615,2.0617,2.0591,2.0586,2.0584,2.0554,2.0549,2.0559,2.0556,2.0524,2.0521,2.0519,2.054,2.0503,2.0502,2.0502,2.0532,2.0534,2.0535,0,0,0,0,0,0,2.0646,2.0644,2.0618,2.0626,2.0622,2.0592,2.0589,2.0583,2.0579,2.055,2.0544,2.056,2.0523,2.052,2.0523,2.0538,2.0502,2.0501,2.0531,2.0533,2.0534,2.0581,0,0,0,0,0,0,2.0647,2.0645,2.0652,2.0626,2.0621,2.0624,2.059,2.0584,2.0578,2.0574,2.0549,2.0544,2.0522,2.0524,2.0523,2.0536,2.0501,2.0529,2.0532,2.0534,2.0578,2.0584,2.0589,0,0,0,0,0,2.0648,2.0666,2.0652,2.065,2.063,2.0625,2.0622,2.0596,2.058,2.0587,2.0568,2.0545,2.0537,2.0525,2.0523,2.0536,2.0528,2.0531,2.0534,2.0575,2.0583,2.0589,0,0,0,0,0,0,2.0693,2.0662,2.0647,2.0656,2.0644,2.0617,2.0624,2.0605,2.0596,2.0592,2.056,2.0555,2.0562,2.055,2.0537,2.0553,2.0529,2.0531,2.0562,2.0568,2.0574,2.0577,2.05,0,0,0,0,0,2.0704,2.0703,2.0676,2.0687,2.0681,2.0654,2.0651,2.0633,2.0618,2.0612,2.0593,2.0579,2.0573,2.057,2.0563,2.0576,2.057,2.0584,2.059,2.0595,2.0597,2.0603,2.0609,2.0543,2.0543,2.0543,0,0,2.0727,2.071,2.0711,2.0695,2.0683,2.0682,2.065,2.065,2.0649,2.0612,2.0614,2.06,2.0582,2.059,2.0593,2.058,2.0614,2.0598,2.0602,2.0602,2.0606,2.0612,2.0618,2.0545,2.0545,2.0545,0,0,2.0768,2.0755,2.0763,2.0752,2.0734,2.0716,2.0718,2.0694,2.0684,2.0686,2.0658,2.0656,2.0646,2.0635,2.0628,2.0665,2.0644,2.0664,2.0693,2.0699,2.0704,2.0709,2.0722,2.0727,2.0666,2.0666,2.0666,0,2.0798,2.0796,2.0769,2.0772,2.0766,2.0733,2.074,2.0731,2.0711,2.0708,2.0694,2.0682,2.0667,2.0672,2.0682,2.0677,2.0678,2.0666,2.0706,2.071,2.0714,2.0726,2.0731,2.0669,2.0668,2.0668,2.0668,0,2.0834,2.0833,2.0842,2.0825,2.082,2.0825,2.0799,2.0797,2.0779,2.0763,2.0765,2.0747,2.0735,2.0735,2.0718,2.0738,2.0731,2.0712,2.0686,2.0723,2.0734,2.0738,2.0672,2.0671,2.0671,2.067,0,0,2.0901,2.087,2.0874,2.0866,2.0844,2.0843,2.0846,2.0836,2.0835,2.0823,2.0825,2.0818,2.0801,2.0793,2.0774,2.0779,2.081,2.0759,2.0759,2.077,2.0832,2.0846,2.0852,2.0796,2.0797,2.0798,2.0833,0,2.0938,2.0943,2.0919,2.093,2.0929,2.0898,2.0901,2.0888,2.0873,2.0869,2.0852,2.0848,2.0825,2.082,2.0824,2.0806,2.0822,2.0803,2.0797,2.0797,2.0803,2.0858,2.0873,2.0907,2.0837,2.0838,2.0838,0,2.0981,2.0973,2.0984,2.0962,2.096,2.0964,2.0953,2.095,2.0934,2.0923,2.0915,2.0893,2.0894,2.0871,2.0872,2.086,2.0856,2.0847,2.0848,2.0846,2.082,2.0857,2.0917,2.0923,2.0845,2.0844,2.0844,0,2.103,2.102,2.1026,2.102,2.0995,2.0998,2.0987,2.0971,2.0966,2.0957,2.0953,2.0944,2.0938,2.0931,2.0907,2.0892,2.0912,2.0886,2.0902,2.0903,2.0907,2.0907,2.0968,2.0905,2.0905,2.0905,2.0905,0,2.1073,2.1081,2.1047,2.1051,2.1058,2.1031,2.104,2.1026,2.1012,2.1012,2.0984,2.0984,2.0953,2.095,2.0931,2.0935,2.0933,2.0923,2.0918,2.0926,2.0927,2.0923,2.092,2.0906,2.0906,2.0906,2.0906,0,2.1128,2.1106,2.1109,2.1086,2.108,2.1087,2.1066,2.1068,2.1051,2.1052,2.105,2.1024,2.1018,2.0994,2.0983,2.097,2.0981,2.0971,2.0986,2.0983,2.1,2.0999,2.106,2.1066,2.1,2.1001,2.1002,0,2.1157,2.1162,2.1139,2.1138,2.1129,2.1126,2.1122,2.1095,2.1091,2.1075,2.1079,2.1072,2.1064,2.1057,2.1037,2.1028,2.1018,2.104,2.1016,2.1024,2.1018,2.1018,2.1018,2.1045,2.1046,2.1046,2.1047,0,2.1211,2.12,2.1195,2.1186,2.1182,2.1173,2.1163,2.1163,2.1134,2.1131,2.1126,2.1121,2.111,2.1103,2.1091,2.1079,2.1058,2.1055,2.1058,2.1065,2.1074,2.107,2.1,2.1053,2.1053,2.1052,2.1052,2.1051,2.1253,2.1257,2.1241,2.1237,2.1227,2.1218,2.1219,2.1203,2.1198,2.1188,2.1172,2.1169,2.1154,2.1136,2.1126,2.1123,2.1111,2.1116,2.1117,2.1118,2.1122,2.1075,2.1121,2.1121,2.112,2.112,2.112,0,2.1306,2.1295,2.1291,2.1278,2.1274,2.1255,2.1244,2.1242,2.124,2.1227,2.1221,2.1215,2.1209,2.1188,2.1179,2.1181,2.1171,2.1179,2.1179,2.1177,2.1133,2.1132,2.1188,2.1188,2.1187,2.1187,2.1187,2.1187,2.1333,2.1338,2.1325,2.1325,2.1313,2.1311,2.1305,2.1297,2.1287,2.1282,2.1277,2.1264,2.1248,2.1238,2.1231,2.1225,2.1223,2.1235,2.1226,2.1186,2.1179,2.1173,2.1171,2.1235,2.1235,2.1269,2.1269,2.127]}]]